GW1914 Weather Reports


Display with metric or nautical units.
time (UTC)temp
F
wind
direction
speed
MPH
gust
MPH
rain 1hr
in
rain 24hr
in
rain mn
in
humidity
%
barometer
mb
20240518055513 49 218 0.0 1.0 0.00 0.00 0.00 68 1017.7
20240518055010 49 218 0.0 1.0 0.00 0.00 0.00 68 1017.7
20240518054509 49 218 0.0 2.0 0.00 0.00 0.00 67 1017.8
20240518054008 49 218 0.0 2.0 0.00 0.00 0.00 67 1017.8
20240518053507 50 218 0.0 2.0 0.00 0.00 0.00 67 1017.8
20240518053013 50 218 0.0 1.0 0.00 0.00 0.00 66 1017.8
20240518052507 50 218 0.0 2.0 0.00 0.00 0.00 63 1017.8
20240518052010 51 218 0.0 2.0 0.00 0.00 0.00 62 1017.8
20240518051507 52 218 0.0 2.0 0.00 0.00 0.00 58 1017.8
20240518051010 52 219 0.0 1.0 0.00 0.00 0.00 61 1017.8
20240518050507 52 219 0.0 1.0 0.00 0.00 0.00 61 1017.8
20240518050005 51 219 0.0 2.0 0.00 0.00 0.00 65 1017.7
20240518045505 51 219 0.0 3.0 0.00 0.00 0.00 66 1017.9
20240518045005 51 220 1.0 3.0 0.00 0.00 0.00 65 1017.8
20240518044505 51 225 0.0 2.0 0.00 0.00 0.00 64 1017.8
20240518044003 52 230 0.0 1.0 0.00 0.00 0.00 60 1017.8
20240518043506 51 230 0.0 2.0 0.00 0.00 0.00 63 1017.8
20240518043003 51 230 0.0 3.0 0.00 0.00 0.00 65 1017.7
20240518042503 50 232 1.0 3.0 0.00 0.00 0.00 65 1017.7
20240518042002 50 232 0.0 3.0 0.00 0.00 0.00 67 1017.6
20240518041501 50 234 0.0 3.0 0.00 0.00 0.00 64 1017.5
20240518041001 50 229 0.0 4.0 0.00 0.00 0.00 62 1017.5
20240518040504 50 240 0.0 4.0 0.00 0.00 0.00 63 1017.5
20240518040003 50 231 1.0 4.0 0.00 0.00 0.00 62 1017.5
20240518035501 51 279 0.0 2.0 0.00 0.00 0.00 64 1017.6
20240518035100 51 279 0.0 1.0 0.00 0.00 0.00 61 1017.4
20240518034603 51 279 0.0 1.0 0.00 0.00 0.00 59 1017.5
20240518034059 52 279 0.0 1.0 0.00 0.00 0.00 59 1017.5
20240518033558 52 279 0.0 1.0 0.00 0.00 0.00 56 1017.6
20240518033107 52 279 0.0 2.0 0.00 0.00 0.00 55 1017.5
20240518032558 52 279 0.0 2.0 0.00 0.00 0.00 59 1017.4
20240518032058 52 279 0.0 2.0 0.00 0.00 0.00 55 1017.4
20240518031558 53 279 0.0 0.0 0.00 0.00 0.00 54 1017.3
20240518031057 53 279 0.0 1.0 0.00 0.00 0.00 54 1017.3
20240518030556 54 279 0.0 1.0 0.00 0.00 0.00 52 1017.2
20240518030056 54 279 0.0 2.0 0.00 0.00 0.00 52 1017.2
20240518025556 55 280 0.0 2.0 0.00 0.00 0.00 47 1017.1
20240518025055 56 280 0.0 1.0 0.00 0.00 0.00 37 1017.1
20240518024556 56 280 0.0 2.0 0.00 0.00 0.00 34 1017.1
20240518024055 57 280 0.0 3.0 0.00 0.00 0.00 35 1017.1
20240518023555 57 277 1.0 3.0 0.00 0.00 0.00 33 1017.2
20240518023055 57 277 0.0 2.0 0.00 0.00 0.00 34 1017.1
20240518022555 57 277 1.0 2.0 0.00 0.00 0.00 33 1017.2
20240518022054 57 277 0.0 4.0 0.00 0.00 0.00 35 1017.1
20240518021553 57 277 2.0 4.0 0.00 0.00 0.00 34 1016.9
20240518021053 58 275 0.0 7.0 0.00 0.00 0.00 33 1016.9
20240518020554 58 275 2.0 7.0 0.00 0.00 0.00 31 1016.9
20240518020054 58 266 1.0 5.0 0.00 0.00 0.00 33 1016.8
20240518015554 57 241 1.0 7.0 0.00 0.00 0.00 35 1016.7
20240518015053 57 244 2.0 9.0 0.00 0.00 0.00 34 1016.8
20240518014557 57 266 3.0 9.0 0.00 0.00 0.00 34 1016.8
20240518014052 58 237 2.0 5.0 0.00 0.00 0.00 36 1016.8
20240518013553 58 241 1.0 5.0 0.00 0.00 0.00 32 1016.8
20240518013109 58 214 1.0 9.0 0.00 0.00 0.00 31 1016.9
20240518012555 59 263 2.0 9.0 0.00 0.00 0.00 29 1017.0
20240518012052 59 274 6.0 9.0 0.00 0.00 0.00 29 1016.9
20240518011552 59 320 2.0 4.0 0.00 0.00 0.00 30 1016.9
20240518011052 59 350 2.0 5.0 0.00 0.00 0.00 30 1016.9
20240518010551 59 259 0.0 12.0 0.00 0.00 0.00 33 1016.9
20240518010052 59 301 3.0 15.0 0.00 0.00 0.00 32 1016.9
20240518005553 58 306 9.0 15.0 0.00 0.00 0.00 29 1016.9
20240518005052 59 278 7.0 13.0 0.00 0.00 0.00 29 1016.7
20240518004551 58 257 1.0 6.0 0.00 0.00 0.00 32 1016.7
20240518004049 58 284 0.0 2.0 0.00 0.00 0.00 33 1016.7
20240518003551 58 284 0.0 3.0 0.00 0.00 0.00 33 1016.7
20240518003057 58 290 0.0 5.0 0.00 0.00 0.00 33 1016.9
20240518002550 58 298 2.0 9.0 0.00 0.00 0.00 31 1016.8
20240518002049 58 262 2.0 10.0 0.00 0.00 0.00 31 1016.7
20240518001551 58 294 2.0 13.0 0.00 0.00 0.00 30 1016.7
20240518001048 58 278 6.0 13.0 0.00 0.00 0.00 29 1016.7
20240518000547 59 297 7.0 11.0 0.00 0.00 0.00 30 1016.5
20240518000050 58 264 3.0 8.0 0.00 0.00 0.00 30 1016.5
20240517235547 59 272 5.0 10.0 0.00 0.00 0.00 28 1016.3
20240517235045 58 265 6.0 10.0 0.00 0.00 0.00 28 1016.3
20240517234545 59 238 5.0 11.0 0.00 0.00 0.00 30 1016.2
20240517234044 60 250 5.0 11.0 0.00 0.00 0.00 29 1016.2
20240517233544 59 315 4.0 10.0 0.00 0.00 0.00 28 1016.1
20240517233050 59 311 3.0 9.0 0.00 0.00 0.00 31 1016.1
20240517232543 58 276 1.0 8.0 0.00 0.00 0.00 29 1016.0
20240517232042 58 257 4.0 17.0 0.00 0.00 0.00 30 1016.1
20240517231542 58 263 7.0 17.0 0.00 0.00 0.00 29 1016.1
20240517231044 59 277 7.0 13.0 0.00 0.00 0.00 30 1016.1
20240517230544 59 282 2.0 10.0 0.00 0.00 0.00 31 1015.8
20240517230042 59 252 4.0 14.0 0.00 0.00 0.00 30 1015.8
20240517225539 58 334 5.0 14.0 0.00 0.00 0.00 30 1015.7
20240517225039 58 269 7.0 16.0 0.00 0.00 0.00 29 1015.8
20240517224539 58 255 8.0 16.0 0.00 0.00 0.00 29 1015.8
20240517224037 59 267 9.0 14.0 0.00 0.00 0.00 29 1015.5
20240517223537 59 270 7.0 11.0 0.00 0.00 0.00 29 1015.5
20240517223036 59 238 4.0 12.0 0.00 0.00 0.00 30 1015.6
20240517222537 59 265 8.0 12.0 0.00 0.00 0.00 29 1015.6
20240517222035 58 260 6.0 10.0 0.00 0.00 0.00 30 1015.6
20240517221535 58 257 5.0 10.0 0.00 0.00 0.00 31 1015.5
20240517221034 59 270 4.0 15.0 0.00 0.00 0.00 32 1015.5
20240517220534 59 327 9.0 15.0 0.00 0.00 0.00 29 1015.4
20240517220045 58 296 7.0 14.0 0.00 0.00 0.00 30 1015.4
20240517215533 58 271 9.0 12.0 0.00 0.00 0.00 31 1015.3
20240517215033 58 274 5.0 12.0 0.00 0.00 0.00 30 1015.4
20240517214533 57 284 8.0 12.0 0.00 0.00 0.00 31 1015.5
20240517214031 57 269 7.0 15.0 0.00 0.00 0.00 33 1015.2
20240517213533 57 277 6.0 15.0 0.00 0.00 0.00 32 1015.3
20240517213031 57 287 5.0 11.0 0.00 0.00 0.00 32 1015.2
20240517212531 57 242 6.0 12.0 0.00 0.00 0.00 31 1015.2
20240517212031 57 288 6.0 15.0 0.00 0.00 0.00 32 1015.2
20240517211530 58 261 8.0 15.0 0.00 0.00 0.00 31 1015.2
20240517211030 57 282 5.0 11.0 0.00 0.00 0.00 34 1015.3
20240517210529 56 281 0.0 7.0 0.00 0.00 0.00 35 1015.2
20240517210029 56 242 3.0 7.0 0.00 0.00 0.00 32 1015.2
20240517205528 57 252 3.0 11.0 0.00 0.00 0.00 33 1015.1
20240517205028 55 272 6.0 12.0 0.00 0.00 0.00 33 1015.2
20240517204529 55 240 6.0 12.0 0.00 0.00 0.00 37 1015.2
20240517204024 55 258 6.0 12.0 0.00 0.00 0.00 36 1015.2
20240517203523 56 254 7.0 17.0 0.00 0.00 0.00 33 1015.1
20240517203030 55 330 9.0 17.0 0.00 0.00 0.00 35 1015.1
20240517202522 56 275 10.0 18.0 0.00 0.00 0.00 32 1015.0
20240517202023 57 242 9.0 18.0 0.00 0.00 0.00 33 1014.9
20240517201533 56 261 3.0 23.0 0.00 0.00 0.00 33 1014.9
20240517201100 56 278 12.0 23.0 0.00 0.00 0.00 34 1015.0
20240517200600 55 246 8.0 15.0 0.00 0.00 0.00 34 1014.8
20240517200104 55 207 3.0 15.0 0.00 0.00 0.00 36 1014.7
20240517195603 55 279 7.0 12.0 0.00 0.00 0.00 37 1014.7
20240517195059 55 276 7.0 11.0 0.00 0.00 0.00 37 1014.4
20240517194605 55 267 3.0 10.0 0.00 0.00 0.00 37 1014.5
20240517194058 54 275 6.0 11.0 0.00 0.00 0.00 38 1014.4
20240517193558 53 259 6.0 11.0 0.00 0.00 0.00 41 1014.6
20240517193100 53 243 1.0 11.0 0.00 0.00 0.00 39 1014.7
20240517192557 52 254 5.0 10.0 0.00 0.00 0.00 40 1014.6
20240517192057 52 261 2.0 10.0 0.00 0.00 0.00 40 1014.7
20240517191600 52 305 3.0 10.0 0.00 0.00 0.00 40 1014.6
20240517191057 52 334 4.0 13.0 0.00 0.00 0.00 41 1014.6
20240517190556 52 249 9.0 19.0 0.00 0.00 0.00 40 1014.6
20240517190055 52 281 9.0 22.0 0.00 0.00 0.00 40 1014.5
20240517185557 52 248 10.0 22.0 0.00 0.00 0.00 39 1014.3
20240517185055 53 300 8.0 19.0 0.00 0.00 0.00 39 1014.2
20240517184554 52 286 7.0 19.0 0.00 0.00 0.00 38 1014.1
20240517184053 52 265 7.0 14.0 0.00 0.00 0.00 39 1014.0
20240517183552 52 287 4.0 16.0 0.00 0.00 0.00 40 1013.8
20240517183056 52 264 8.0 16.0 0.00 0.00 0.00 41 1013.7
20240517182552 52 268 3.0 18.0 0.00 0.00 0.00 41 1013.7
20240517182052 51 288 9.0 18.0 0.00 0.00 0.00 42 1013.6
20240517181551 51 269 8.0 24.0 0.00 0.00 0.00 41 1013.6
20240517181050 51 281 11.0 20.0 0.00 0.00 0.00 42 1013.5
20240517180550 51 274 9.0 17.0 0.00 0.00 0.00 42 1013.3
20240517180053 53 274 12.0 19.0 0.00 0.00 0.00 40 1013.2
20240517175549 53 271 12.0 23.0 0.00 0.00 0.00 39 1013.0
20240517175049 53 267 11.0 23.0 0.00 0.00 0.00 41 1012.9
20240517174558 54 259 10.0 16.0 0.00 0.00 0.00 36 1012.8
20240517174047 54 267 10.0 16.0 0.00 0.00 0.00 37 1012.7
20240517173547 53 257 11.0 19.0 0.00 0.00 0.00 40 1012.7
20240517173049 53 274 10.0 19.0 0.00 0.00 0.00 38 1012.6
20240517172546 53 194 9.0 20.0 0.00 0.00 0.00 39 1012.6
20240517172044 54 277 11.0 23.0 0.00 0.00 0.00 34 1012.4
20240517171546 55 223 12.0 23.0 0.00 0.00 0.00 35 1012.0
20240517171042 54 262 11.0 23.0 0.00 0.00 0.00 39 1012.1
20240517170542 53 208 10.0 21.0 0.00 0.00 0.00 40 1012.0
20240517170042 53 267 11.0 21.0 0.00 0.00 0.00 42 1012.1
20240517165540 53 195 9.0 16.0 0.00 0.00 0.00 43 1012.1
20240517165040 52 173 7.0 15.0 0.00 0.00 0.00 42 1012.1
20240517164542 52 251 7.0 19.0 0.00 0.00 0.00 43 1012.3
20240517164038 53 277 8.0 19.0 0.00 0.00 0.00 40 1012.2
20240517163537 53 243 6.0 14.0 0.00 0.00 0.00 45 1012.2
20240517163036 53 221 6.0 14.0 0.00 0.00 0.00 44 1012.1
20240517162536 52 259 7.0 15.0 0.00 0.00 0.00 46 1012.0
20240517162036 51 227 9.0 15.0 0.00 0.00 0.00 45 1011.8
20240517161536 52 248 10.0 25.0 0.00 0.00 0.00 45 1011.7
20240517161033 52 221 6.0 25.0 0.00 0.00 0.00 47 1011.5
20240517160535 52 198 9.0 19.0 0.00 0.00 0.00 42 1011.4
20240517160031 52 246 9.0 23.0 0.00 0.00 0.00 44 1011.4
20240517155529 52 237 8.0 23.0 0.00 0.00 0.00 42 1011.3
20240517155029 52 263 10.0 19.0 0.00 0.00 0.00 41 1011.1
20240517154537 52 272 10.0 19.0 0.00 0.00 0.00 38 1011.0
20240517154027 52 280 8.0 17.0 0.00 0.00 0.00 40 1010.9
20240517153526 52 263 7.0 19.0 0.00 0.00 0.00 41 1010.8
20240517153026 52 264 9.0 19.0 0.00 0.00 0.00 44 1010.8
20240517152526 51 199 7.0 23.0 0.00 0.00 0.00 42 1010.7
20240517152025 51 188 8.0 23.0 0.00 0.00 0.00 45 1010.6
20240517151524 51 261 7.0 19.0 0.00 0.00 0.00 44 1010.8
20240517151024 50 246 10.0 19.0 0.00 0.00 0.00 45 1010.7
20240517150522 50 215 11.0 19.0 0.00 0.00 0.00 43 1010.6
20240517150032 50 220 8.0 18.0 0.00 0.00 0.00 45 1010.5
20240517145519 50 262 9.0 18.0 0.00 0.00 0.00 44 1010.4
20240517145019 50 223 9.0 17.0 0.00 0.00 0.00 45 1010.2
20240517144519 50 232 11.0 17.0 0.00 0.00 0.00 44 1010.1
20240517144018 51 273 7.0 16.0 0.00 0.00 0.00 48 1010.1
20240517143516 50 233 7.0 16.0 0.00 0.00 0.00 51 1010.1
20240517143016 49 232 0.0 6.0 0.00 0.00 0.00 57 1010.1
20240517142517 50 203 1.0 5.0 0.00 0.00 0.00 55 1009.9
20240517142017 50 227 0.0 10.0 0.00 0.00 0.00 53 1009.9
20240517141519 50 249 4.0 10.0 0.00 0.00 0.00 46 1009.7
20240517141015 50 211 0.0 7.0 0.00 0.00 0.00 56 1009.6
20240517140512 50 242 2.0 7.0 0.00 0.00 0.00 55 1009.6
20240517140012 50 222 2.0 5.0 0.00 0.00 0.00 53 1009.6
20240517135510 49 217 0.0 7.0 0.00 0.00 0.00 56 1009.3
20240517135010 50 179 1.0 7.0 0.00 0.00 0.00 54 1009.3
20240517134510 50 255 1.0 5.0 0.00 0.00 0.00 53 1009.2
20240517134009 49 197 0.0 2.0 0.00 0.00 0.00 56 1009.2
20240517133508 49 200 0.0 4.0 0.00 0.00 0.00 56 1009.2
20240517133008 49 199 0.0 4.0 0.00 0.00 0.00 58 1009.0
20240517132506 49 208 0.0 1.0 0.00 0.00 0.00 58 1008.8
20240517132008 49 208 0.0 3.0 0.00 0.00 0.00 58 1008.9
20240517131504 50 216 0.0 3.0 0.00 0.00 0.00 55 1008.5
20240517131003 49 263 0.0 1.0 0.00 0.00 0.00 55 1008.5
20240517130502 49 263 0.0 1.0 0.00 0.00 0.00 56 1008.4
20240517130005 49 265 0.0 1.0 0.00 0.00 0.00 57 1008.2
20240517125502 49 267 0.0 2.0 0.00 0.00 0.00 56 1008.2
20240517125101 49 267 0.0 3.0 0.00 0.00 0.00 55 1008.1
20240517124559 50 267 0.0 3.0 0.00 0.00 0.00 55 1008.0
20240517124057 50 267 1.0 3.0 0.00 0.00 0.00 54 1007.8
20240517123556 49 275 0.0 1.0 0.00 0.00 0.00 54 1008.0
20240517123126 49 275 0.0 1.0 0.00 0.00 0.00 54 1007.9
20240517122557 49 275 0.0 4.0 0.00 0.00 0.00 55 1007.8
20240517122058 49 275 0.0 5.0 0.00 0.00 0.00 54 1007.7
20240517121553 49 286 1.0 5.0 0.00 0.00 0.00 54 1007.6
20240517121053 49 273 0.0 3.0 0.00 0.00 0.00 54 1007.5
20240517120553 49 279 0.0 8.0 0.00 0.00 0.00 55 1007.6
20240517120054 49 287 1.0 8.0 0.00 0.00 0.00 54 1007.5
20240517115551 49 262 0.0 2.0 0.00 0.00 0.00 56 1007.5
20240517115050 49 207 0.0 6.0 0.00 0.00 0.00 57 1007.4
20240517114550 50 207 1.0 6.0 0.00 0.00 0.00 59 1007.3
20240517114049 50 188 3.0 6.0 0.00 0.00 0.00 55 1007.2
20240517113547 50 214 0.0 4.0 0.00 0.00 0.00 55 1007.2
20240517113051 50 247 0.0 4.0 0.00 0.00 0.00 55 1007.2
20240517112545 51 196 0.0 8.0 0.00 0.00 0.00 54 1007.0
20240517112046 51 234 2.0 10.0 0.00 0.00 0.00 56 1006.9
20240517111557 51 196 5.0 10.0 0.00 0.00 0.00 55 1006.9
20240517111045 51 190 3.0 14.0 0.00 0.00 0.00 56 1006.9
20240517110548 51 195 11.0 14.0 0.00 0.00 0.00 55 1006.8
20240517110043 51 205 11.0 14.0 0.00 0.00 0.00 58 1006.6
20240517105544 51 191 11.0 15.0 0.00 0.00 0.00 57 1006.7
20240517105041 51 175 10.0 15.0 0.00 0.00 0.00 57 1006.8
20240517104549 51 194 10.0 14.0 0.00 0.00 0.00 57 1006.9
20240517104039 51 172 8.0 12.0 0.00 0.00 0.00 56 1007.0
20240517103537 52 204 9.0 11.0 0.00 0.00 0.00 57 1007.0
20240517103037 52 180 7.0 12.0 0.00 0.00 0.00 57 1007.2
20240517102538 52 190 7.0 9.0 0.00 0.00 0.00 59 1007.2
20240517102033 52 160 5.0 10.0 0.00 0.00 0.00 57 1007.1
20240517101532 52 209 0.0 10.0 0.00 0.00 0.00 58 1006.9
20240517101031 52 130 5.0 10.0 0.00 0.00 0.00 57 1006.9
20240517100530 53 232 1.0 4.0 0.00 0.00 0.00 59 1006.8
20240517100030 53 355 1.0 3.0 0.00 0.00 0.00 58 1006.6
20240517095530 53 338 1.0 5.0 0.00 0.00 0.00 58 1006.5
20240517095028 53 347 2.0 6.0 0.00 0.00 0.00 58 1006.4
20240517094527 54 336 1.0 4.0 0.00 0.00 0.00 58 1006.5
20240517094025 54 330 1.0 6.0 0.00 0.00 0.00 60 1006.4
20240517093524 54 215 1.0 4.0 0.00 0.00 0.00 56 1006.3
20240517093024 54 311 0.0 3.0 0.00 0.00 0.00 55 1006.3
20240517092524 54 299 1.0 3.0 0.00 0.00 0.00 54 1006.4
20240517092024 54 349 1.0 3.0 0.00 0.00 0.00 53 1006.5
20240517091525 54 265 0.0 2.0 0.00 0.00 0.00 54 1006.4
20240517091021 55 223 0.0 2.0 0.00 0.00 0.00 55 1006.3
20240517090521 55 223 0.0 2.0 0.00 0.00 0.00 55 1006.4
20240517090021 55 288 0.0 7.0 0.00 0.00 0.00 55 1006.4
20240517085518 56 179 2.0 8.0 0.00 0.00 0.00 55 1006.3
20240517085017 56 178 4.0 8.0 0.00 0.00 0.00 54 1006.3
20240517084534 56 180 4.0 8.0 0.00 0.00 0.00 53 1006.3
20240517084016 56 172 3.0 7.0 0.00 0.00 0.00 53 1006.4
20240517083514 56 188 3.0 7.0 0.00 0.00 0.00 51 1006.4
20240517083015 57 175 0.0 10.0 0.00 0.00 0.00 51 1006.4
20240517082513 57 195 5.0 10.0 0.00 0.00 0.00 51 1006.4
20240517082013 57 187 4.0 9.0 0.00 0.00 0.00 50 1006.5
20240517081530 57 194 3.0 16.0 0.00 0.00 0.00 52 1006.6
20240517081012 57 245 6.0 16.0 0.00 0.00 0.00 51 1006.5
20240517080510 57 191 6.0 15.0 0.00 0.00 0.00 49 1006.4
20240517080010 58 243 6.0 12.0 0.00 0.00 0.00 50 1006.5
20240517075510 58 249 5.0 14.0 0.00 0.00 0.00 50 1006.6
20240517075008 58 360 5.0 17.0 0.00 0.00 0.00 48 1006.4
20240517074513 58 360 8.0 17.0 0.00 0.00 0.00 48 1006.4
20240517074006 58 194 3.0 18.0 0.00 0.00 0.00 48 1006.4
20240517073504 58 209 8.0 15.0 0.00 0.00 0.00 47 1006.3
20240517073004 59 202 6.0 14.0 0.00 0.00 0.00 49 1006.3
20240517072603 59 216 4.0 14.0 0.00 0.00 0.00 49 1006.3
20240517072002 59 206 6.0 17.0 0.00 0.00 0.00 49 1006.2
20240517071500 59 218 7.0 17.0 0.00 0.00 0.00 49 1006.2
20240517071059 59 193 3.0 10.0 0.00 0.00 0.00 51 1006.3
20240517070559 59 214 3.0 11.0 0.00 0.00 0.00 51 1006.3
20240517070058 59 228 4.0 14.0 0.00 0.00 0.00 51 1006.3
20240517065603 59 234 6.0 14.0 0.00 0.00 0.00 50 1006.3
20240517065057 59 228 6.0 14.0 0.00 0.00 0.00 52 1006.3
20240517064601 60 202 4.0 14.0 0.00 0.00 0.00 50 1006.1
20240517064102 60 202 5.0 13.0 0.00 0.00 0.00 50 1006.2
20240517063557 60 257 5.0 10.0 0.00 0.00 0.00 49 1006.1
20240517063101 60 227 2.0 9.0 0.00 0.00 0.00 50 1006.0
20240517062557 60 199 5.0 9.0 0.00 0.00 0.00 49 1005.8
20240517062056 60 200 2.0 10.0 0.00 0.00 0.00 49 1005.8
20240517061556 61 190 3.0 15.0 0.00 0.00 0.00 50 1005.8
20240517061056 61 238 7.0 15.0 0.00 0.00 0.00 49 1005.6
20240517060556 61 225 5.0 13.0 0.00 0.00 0.00 50 1005.7
20240517060057 61 273 7.0 15.0 0.00 0.00 0.00 50 1005.6